BREEZE-M R/B, 37186

Orbit data source: Space-Track

BREEZE-M R/B, 37186 is space debris in HEO originally from a launch on Thu, 14 Oct 2010 UTC launched from the Tyuratam Missile And Space Complex (TTMTR). Debris objects in space refer to the collection of defunct objects orbiting the Earth. Examples of debris include non-operational satellites, rocket bodies, and fragments generated from explosions, collisions, or faulty payload assembly.

Loading next visibility...
Identifier
37186, 2010-053B
Orbit
HEO
Country
Flag of CISCIS
Related business
Manufacturer
Khrunichev
Mission
Spacecraft
Bus & Motor
BRIZ, Unknown motor
Mass
~1,600 kg wet, 1,600 kg dry
Launch date (UTC)
2010-10-14 (15 years ago)
Launch vehicle
Unknown
Launch site
Tyuratam Missile And Space Complex (TTMTR)
Object type
Payload
Rocket body
Debris
Shape & HBR
Cyl, 2.0 m
Radar Cross Section
15.135 m², Large (>1 m²)

Expand to show TLE details & history
Last TLE update: 2 days ago

TLE from 2 days ago
0 BREEZE-M R/B
1 37186U 10053B   25354.06272076 -.00000112  00000-0  00000-0 0  9998
2 37186  22.8017 334.3320 6041744  75.1042  34.3379  2.17039952120369
Epoch: 2025-12-20T01:30Z
TLE epoch observation values (Epoch: 2025-12-20T01:30:19.073Z)
Latitude
-0.07033°
Longitude
42.99567°
Altitude
12,551.623 km
Speed
5.128 km/s
True Right ascension
10h 17m 52s
True Declination
0° 04' 13"
Sunlit
Object was in daylight at epoch
Visualization orbit readout
Latitude
Unknown
Longitude
Unknown
Altitude
Unknown
Speed
Unknown
Apparent Right ascension
Unknown
Apparent Declination
Unknown
Sunlit
N/A
Visualization observer readout
Local Sidereal Time
13:56:45
Azimuth
Unknown
Elevation
Unknown
Doppler factor
Unknown
Orbital elements
Apogee altitude
34,049.034 km
Perigee altitude
3,597.156 km
Semi-major axis
25,201.232 km
Eccentricity
0.60417
Inclination
22.8017°
RAAN
334.332°
Arg. of periapsis
75.1042°
True anomaly
105.12115°
Mean anomaly
34.3379°
Eccentric anomaly
65.94931°
Mean motion
0.54251 °/min
Orbital period
663.58 mins
BSTAR
0
Loading maneuver chart data...
Computing Atmospheric mass density...
Loading historical data...
Loading historical data...
Loading historical data...
Loading historical data...
Loading historical data...
Loading historical data...
Loading historical data...
Other satellites on launch #53 in the year 2010 (2010-10-14 UTC)

Documentation

Showing up to 5 results
|